Погода в Колвези

Демократическая Республика Конго     10°43′15″S   25°25′16″E
темп.,
°C
ветер,
м/с
пор.,
м/с
влажн.,
%
обл.,
%
осадки,
мм/ч
давл.,
гПа
погр.,
м
27 ноября, сб
сб2701:00+15вюв2599100 1.5 1016154
04:00+15вюв269897 0.4 1016190
07:00+18в479132 0.5 1017390
10:00+21в467334 0.1 1015854
13:00+24в456898 1.8 10111193
16:00+22вюв4575100 1.2 1011766
19:00+17вюв269594 4.9 1014155
22:00+16юв269799 0.8 1015151
28 ноября, вс
вс2801:00+15юв3109879 2.0 1014295
04:00+15вюв3109761 0.3 1015301
07:00+18в5128915 0.3 1016569
10:00+25в565823 0.1 10131380
13:00+24ссв346852 2.2 1010777
16:00+23в247737 1.3 1009334
19:00+19в12855 2.6 101224
22:00+16ссз119627 2.1 101515
29 ноября, пн
пн2901:00+16з0095100 3.4 101311
04:00+16ююв1193100 0.1 101411
07:00+20вюв238625 0.1 1015232
10:00+24в237044 2.9 1013697
13:00+27ссв125147 4.7 10091206
16:00+22сз137496 0.3 1009156
19:00+19ю1185100 1.4 101225
22:00+17ссз1192100 1.1 101317
30 ноября, вт
вт3001:00+17зюз229191 1.1 101119
04:00+17ююв118998 0.0 101217
07:00+21вюв118080 0.1 1014236
10:00+25зсз116898 2.3 1012452
13:00+28ссв224789 2.8 10081443
16:00+18ссз2385100 6.7 100855
19:00+18з128550 7.0 101121
22:00+17сз24917 0.0 101266
1 декабря, ср
ср101:00+16з2597100 0.0 1011135
04:00+16юз1198100 1.1 101312
07:00+20ссз12887 1.6 1014283
10:00+23сз237499 4.6 1013564
13:00+26ссв225816 6.7 10091351
16:00+25ссз116061 0.0 1007945
19:00+15всв41297100 5.1 1014370
22:00+16сз0290100 0.3 101350